Time,TemperatureF,DewpointF,PressureIn,WindDirection,WindDirectionDegrees,WindSpeedMPH,WindSpeedGustMPH,Humidity,HourlyPrecipIn,Conditions,Clouds,dailyrainin,SolarRadiationWatts/m^2,SoftwareType,DateUTC
2013-10-08 09:22:00,31.0,26.0,-100.00,NNW,327,4.0,6.0,82,-99.99,,,0.00,106.000000,,2013-10-08 15:22:00,
2013-10-08 09:33:00,31.0,26.0,-100.00,NNW,327,4.0,6.0,82,-99.99,,,0.00,106.000000,,2013-10-08 15:33:00,
2013-10-08 10:23:00,46.0,27.0,-100.00,South,176,5.0,8.0,47,-99.99,,,0.00,401.000000,,2013-10-08 16:23:00,
2013-10-08 10:33:00,46.0,27.0,-100.00,South,176,5.0,8.0,47,-99.99,,,0.00,401.000000,,2013-10-08 16:33:00,
2013-10-08 10:42:00,46.0,27.0,-100.00,South,176,5.0,8.0,47,-99.99,,,0.00,401.000000,,2013-10-08 16:42:00,
2013-10-08 10:53:00,46.0,27.0,-100.00,South,176,5.0,8.0,47,-99.99,,,0.00,401.000000,,2013-10-08 16:53:00,
2013-10-08 11:23:00,50.0,30.0,-100.00,South,171,6.0,11.0,46,0.00,,,0.00,530.000000,,2013-10-08 17:23:00,
2013-10-08 11:33:00,50.0,30.0,-100.00,South,171,6.0,11.0,46,0.00,,,0.00,530.000000,,2013-10-08 17:33:00,
2013-10-08 11:52:00,50.0,30.0,-100.00,South,171,6.0,11.0,46,0.00,,,0.00,530.000000,,2013-10-08 17:52:00,
2013-10-08 12:22:00,58.0,22.0,-100.00,SSE,167,8.0,13.0,25,0.00,,,0.00,700.000000,,2013-10-08 18:22:00,
2013-10-08 12:32:00,58.0,22.0,-100.00,SSE,167,8.0,13.0,25,0.00,,,0.00,700.000000,,2013-10-08 18:32:00,
2013-10-08 12:42:00,58.0,22.0,-100.00,SSE,167,8.0,13.0,25,0.00,,,0.00,700.000000,,2013-10-08 18:42:00,
2013-10-08 12:52:00,58.0,22.0,-100.00,SSE,167,8.0,13.0,25,0.00,,,0.00,700.000000,,2013-10-08 18:52:00,
2013-10-08 13:22:00,61.0,22.0,-100.00,South,179,9.0,14.0,22,0.00,,,0.00,749.000000,,2013-10-08 19:22:00,
2013-10-08 13:32:00,61.0,22.0,-100.00,South,179,9.0,14.0,22,0.00,,,0.00,749.000000,,2013-10-08 19:32:00,
2013-10-08 13:42:00,61.0,22.0,-100.00,South,179,9.0,14.0,22,0.00,,,0.00,749.000000,,2013-10-08 19:42:00,
2013-10-08 13:52:00,61.0,22.0,-100.00,South,179,9.0,14.0,22,0.00,,,0.00,749.000000,,2013-10-08 19:52:00,
2013-10-08 14:22:00,62.0,18.0,-100.00,SW,227,9.0,27.0,18,0.00,,,-99.99,764.000000,,2013-10-08 20:22:00,
2013-10-08 14:32:00,62.0,18.0,-100.00,SW,227,9.0,27.0,18,0.00,,,-99.99,764.000000,,2013-10-08 20:32:00,
2013-10-08 14:42:00,62.0,18.0,-100.00,SW,227,9.0,27.0,18,0.00,,,-99.99,764.000000,,2013-10-08 20:42:00,
2013-10-08 14:52:00,62.0,18.0,-100.00,SW,227,9.0,27.0,18,0.00,,,-99.99,764.000000,,2013-10-08 20:52:00,
2013-10-08 15:22:00,62.0,18.0,-100.00,WSW,243,9.0,20.0,18,0.00,,,0.00,626.000000,,2013-10-08 21:22:00,
2013-10-08 15:34:00,62.0,18.0,-100.00,WSW,243,9.0,20.0,18,0.00,,,0.00,626.000000,,2013-10-08 21:34:00,
2013-10-08 15:44:00,62.0,18.0,-100.00,WSW,243,9.0,20.0,18,0.00,,,0.00,626.000000,,2013-10-08 21:44:00,
2013-10-08 15:54:00,62.0,18.0,-100.00,WSW,243,9.0,20.0,18,0.00,,,0.00,626.000000,,2013-10-08 21:54:00,
2013-10-08 16:24:00,61.0,20.0,-100.00,SW,233,8.0,16.0,20,0.00,,,-99.99,393.000000,,2013-10-08 22:24:00,
2013-10-08 16:32:00,61.0,20.0,-100.00,SW,233,8.0,16.0,20,0.00,,,-99.99,393.000000,,2013-10-08 22:32:00,
2013-10-08 16:46:00,61.0,20.0,-100.00,SW,233,8.0,16.0,20,0.00,,,-99.99,393.000000,,2013-10-08 22:46:00,
2013-10-08 16:55:00,61.0,20.0,-100.00,SW,233,8.0,16.0,20,0.00,,,-99.99,393.000000,,2013-10-08 22:55:00,
2013-10-08 17:23:00,58.0,19.0,-100.00,WSW,254,7.0,17.0,22,0.00,,,0.00,252.000000,,2013-10-08 23:23:00,
2013-10-08 17:34:00,58.0,19.0,-100.00,WSW,254,7.0,17.0,22,0.00,,,0.00,252.000000,,2013-10-08 23:34:00,
2013-10-08 17:42:00,58.0,19.0,-100.00,WSW,254,7.0,17.0,22,0.00,,,0.00,252.000000,,2013-10-08 23:42:00,
2013-10-08 17:52:00,58.0,19.0,-100.00,WSW,254,7.0,17.0,22,0.00,,,0.00,252.000000,,2013-10-08 23:52:00,
2013-10-08 18:22:00,58.0,21.0,-100.00,West,266,7.0,13.0,24,0.00,,,0.00,154.000000,,2013-10-09 00:22:00,
2013-10-08 18:32:00,58.0,21.0,-100.00,West,266,7.0,13.0,24,0.00,,,0.00,154.000000,,2013-10-09 00:32:00,
2013-10-08 18:43:00,58.0,21.0,-100.00,West,266,7.0,13.0,24,0.00,,,0.00,154.000000,,2013-10-09 00:43:00,
2013-10-08 18:52:00,58.0,21.0,-100.00,West,266,7.0,13.0,24,0.00,,,0.00,154.000000,,2013-10-09 00:52:00,